Regional Weather Roundup
Issued by NWS

Home | Current Version | Previous Version | Text Only | Print | Product List | Glossary Off
Versions: 1 2 3 4 5 6 7 8 9 10 11 12 13 14 15 16 17 18 19 20 21 22 23 24 25 26 27 28 29 30 31 32 33 34 35 36 37 38 39 40 41 42 43 44 45 46 47 48 49 50

000
ASUS43 KDTX 280010
RWRMI
MICHIGAN HOURLY REGIONAL WEATHER ROUNDUP
NATIONAL WEATHER SERVICE DETROIT/PONTIAC MI
800 PM EDT SUN JUL 27 2014

NOTE: "FAIR" INDICATES FEW OR NO CLOUDS BELOW 12,000 FEET WITH NO
SIGNIFICANT WEATHER AND/OR OBSTRUCTION TO VISIBILITY.

MIZ047>049-052>055-059>063-066>070-074>076-081>083-280100-
SOUTHEAST LOWER MICHIGAN

CITY           SKY/WX    TMP DP  RH WIND       PRES   REMARKS
ADRIAN         CLOUDY    68  64  87 N10       29.69R
6HR MIN TEMP:  68; 6HR MAX TEMP:  87; 6HR PCP:  0.08;

ALMA           LGT RAIN  63  61  93 S5        29.71F
6HR MIN TEMP:  62; 6HR MAX TEMP:  83;

ANN ARBOR      CLOUDY    63  58  83 NE9       29.72S
BAD AXE        LGT RAIN  61  61  97 E10G18    29.60F
6HR MIN TEMP:  61; 6HR MAX TEMP:  78;

DETROIT CITY   LGT RAIN  65  58  78 N12G22    29.71R
6HR MIN TEMP:  65; 6HR MAX TEMP:  87; 6HR PCP:  1.37;

DETROIT        LGT RAIN  63  57  82 NE17G24   29.69F FOG
6HR MIN TEMP:  61; 6HR MAX TEMP:  87; 6HR PCP:  0.99;

FLINT          CLOUDY    63  57  81 E12       29.67F
6HR MIN TEMP:  63; 6HR MAX TEMP:  84; 6HR PCP:  0.26;

GROSSE ILE     HVY RAIN  64  61  88 N24G43    29.71R
HILLSDALE      MOCLDY    70  62  76 N8G20     29.71R
6HR MIN TEMP:  65; 6HR MAX TEMP:  86;

HOWELL         HVY RAIN  60  58  92 NE3       29.72S

CITY           SKY/WX    TMP DP  RH WIND       PRES   REMARKS
JACKSON        CLOUDY    64  60  87 E7        29.73R
6HR MIN TEMP:  64; 6HR MAX TEMP:  85; 6HR PCP:  0.05;

LAMBERTVILLE   CLOUDY    70  61  73 N8        29.68R
LANSING        TSTM      62  59  90 NE7       29.73S
6HR MIN TEMP:  61; 6HR MAX TEMP:  80; 6HR PCP:  0.33;

LAPEER         NOT AVBL
MASON          LGT RAIN  61  59  92 N3        29.74R
MONROE         LGT RAIN  66  63  88 N21G33    29.66R
MT. CLEMENS    RAIN      62  59  88 NW14G25   29.72R
6HR MIN TEMP:  62; 6HR MAX TEMP:  82; 6HR PCP:  1.13;

PONTIAC        TSTM     N/A N/A N/A N10       29.68F
PORT HOPE        N/A     64  62  93 E9        29.63F
6HR MIN TEMP:  60; 6HR MAX TEMP:  69; 6HR PCP:  1.06;

PORT HURON     CLOUDY    63  61  94 N9        29.68F
TRI CITIES     CLOUDY    65  61  87 NW6       29.70R
6HR MIN TEMP:  63; 6HR MAX TEMP:  80; 6HR PCP:  0.29;

YPSILANTI      CLOUDY    66  58  75 NE14      29.70F
6HR MIN TEMP:  65; 6HR MAX TEMP:  92; 6HR PCP:  0.52;

$$
MIZ043>046-050>051-056>058-064>065-071>073-077>080-280100-
SOUTHWEST LOWER MICHIGAN

CITY           SKY/WX    TMP DP  RH WIND       PRES   REMARKS
BATTLE CREEK   MOSUNNY   69  60  73 NW10      29.73R
6HR MIN TEMP:  65; 6HR MAX TEMP:  87; 6HR PCP:  0.51;

BENTON HARBOR  MOSUNNY   67  59  75 NW9       29.75R
6HR MIN TEMP:  67; 6HR MAX TEMP:  83; 6HR PCP: TRACE;

BIG RAPIDS     PTSUNNY   66  57  73 NW5       29.70R
6HR MIN TEMP:  64; 6HR MAX TEMP:  84; 6HR PCP:  0.49;

COLDWATER      MOSUNNY   72  60  65 NW14G24   29.71R
6HR MIN TEMP:  72; 6HR MAX TEMP:  87;

HOLLAND        MOSUNNY   68  60  75 NW10G17   29.74R
6HR MIN TEMP:  65; 6HR MAX TEMP:  83; 6HR PCP:  0.23;

GRAND RAPIDS   PTSUNNY   70  62  76 NE10      29.72R
6HR MIN TEMP:  68; 6HR MAX TEMP:  86; 6HR PCP:  0.02;

KALAMAZOO      MOSUNNY   69  58  67 NW13      29.72R
6HR MIN TEMP:  68; 6HR MAX TEMP:  86; 6HR PCP:  0.12;

MARSHALL       CLOUDY    67  63  86 NW5       29.71R
MUSKEGON       PTSUNNY   66  57  72 W14G20    29.72R
6HR MIN TEMP:  65; 6HR MAX TEMP:  79; 6HR PCP:  0.02;

$$
MIZ016>042-280100-
NORTHERN LOWER MICHIGAN

CITY           SKY/WX    TMP DP  RH WIND       PRES   REMARKS
BEAVER ISLAND  CLOUDY    63  58  84 N7        29.80R
6HR MIN TEMP:  63; 6HR MAX TEMP:  67;

BELLAIRE       CLOUDY    67  61  80 N3        29.74R
6HR MIN TEMP:  64; 6HR MAX TEMP:  70;

CADILLAC       CLOUDY    64  62  95 N9        29.73R
CHARLEVOIX     CLOUDY    64  63  96 N10       29.80R
6HR MIN TEMP:  64; 6HR MAX TEMP:  70;

FRANKFORT      CLOUDY    64  60  85 N9G21     29.77R
GAYLORD        CLOUDY    64  58  80 NE8G18    29.75R
6HR MIN TEMP:  61; 6HR MAX TEMP:  65; 6HR PCP:  0.10;

GRAYLING       CLOUDY    67  64  90 N8        29.74R
HARBOR SPRINGS CLOUDY    65  62  87 N9        29.76R
HOUGHTON LAKE  CLOUDY    64  60  87 NE7       29.72R
6HR MIN TEMP:  61; 6HR MAX TEMP:  66; 6HR PCP:  0.23;

MANISTEE       CLOUDY    64  61  88 N10       29.74R
OSCODA         CLOUDY    63  61  93 N13G18    29.68S
PELLSTON       CLOUDY    66  62  87 N12       29.76S
6HR MIN TEMP:  65; 6HR MAX TEMP:  69; 6HR PCP: TRACE;

TRAVERSE CITY  CLOUDY    67  61  81 N10       29.73R
6HR MIN TEMP:  66; 6HR MAX TEMP:  71; 6HR PCP:  0.46;

$$
MIZ007>008-015-280100-
EASTERN UPPER MICHIGAN

CITY           SKY/WX    TMP DP  RH WIND       PRES   REMARKS
KINROSS        CLOUDY    64  59  82 NW8       29.78R
6HR MIN TEMP:  64; 6HR MAX TEMP:  68;

MACKINAC ISLAN CLOUDY    64  62  96 N7        29.77R
6HR MIN TEMP:  62; 6HR MAX TEMP:  67; 6HR PCP:  0.03;

NEWBERRY       CLOUDY    59  49  68 NW10G16   29.82R
S. S. MARIE    PTSUNNY   68  57  68 VRB3      29.77R
6HR MIN TEMP:  68; 6HR MAX TEMP:  72; 6HR PCP: TRACE;

$$
MIZ004>006-011>014-085-280100-
CENTRAL UPPER MICHIGAN

CITY           SKY/WX    TMP DP  RH WIND       PRES   REMARKS
MANISTIQUE     MOSUNNY   61  53  73 N13       29.83R
ESCANABA       CLOUDY    64  48  55 N10G23    29.86R
6HR MIN TEMP:  61; 6HR MAX TEMP:  66;

MENOMINEE      PTSUNNY   64  52  63 N14G23    29.85R
6HR MIN TEMP:  61; 6HR MAX TEMP:  68; 6HR PCP:  0.13;

SAWYER-GWINN   PTSUNNY   59  50  72 N21G28    29.92R
$$
MIZ001>003-009>011-084-280100-
WESTERN UPPER MICHIGAN

CITY           SKY/WX    TMP DP  RH WIND       PRES   REMARKS
IRON MOUNTAIN  PTSUNNY   65  49  56 N20G25    29.91R
6HR MIN TEMP:  60; 6HR MAX TEMP:  70; 6HR PCP: TRACE;

HOUGHTON       PTSUNNY   60  50  69 NW9       29.98R
6HR MIN TEMP:  58; 6HR MAX TEMP:  67;

COPPER HARBOR    N/A     56  47  71 NE12      29.96R
6HR MIN TEMP:  53; 6HR MAX TEMP:  60;

IRONWOOD       PTSUNNY   63  52  67 N8        30.00R
6HR MIN TEMP:  54; 6HR MAX TEMP:  63;

$$

ABBREVIATIONS USED IN REMARKS
   TC - TEMPERATURE IN CELSIUS
  WCI - WIND CHILL INDEX
   HX - HEAT INDEX
  VSB - VISIBILITY



USA.gov is the U.S. government's official web portal to all federal, state and local government web resources and services.